GEFSGL_prec_meanprecacc_216.txt.gz
Total_Precipitation_Accumulation
0.96 1.01 1.00 1.05 1.15 1.42 1.65 1.60 1.42 1.41 1.43 1.40 1.35 1.43 1.58 1.71 1.82 1.95 2.01 2.02 2.05 2.18 2.13 2.08 2.16 2.27 2.51 2.48 2.53 2.51 2.40 2.32 2.28 2.07 1.71 1.71 1.95 2.04 1.96 1.77 1.61 1.58 1.42
0.78 0.83 0.91 0.92 1.02 1.14 1.26 1.28 1.23 1.14 1.12 1.17 1.22 1.24 1.32 1.49 1.61 1.66 1.68 1.71 1.78 1.91 1.97 1.92 1.94 2.01 2.13 2.34 2.44 2.44 2.44 2.38 2.37 2.32 1.98 1.80 1.77 1.90 1.98 1.95 1.70 1.56 1.46
0.71 0.77 0.84 0.85 0.87 0.90 0.92 0.86 0.90 0.92 0.98 1.04 1.16 1.21 1.29 1.36 1.52 1.54 1.52 1.49 1.53 1.61 1.74 1.81 1.86 1.88 1.91 2.04 2.01 2.10 2.24 2.40 2.48 2.40 2.24 2.02 1.86 1.84 1.92 1.89 1.83 1.84 1.61
0.81 0.89 0.92 0.93 0.92 0.93 0.91 0.87 0.88 0.91 0.95 1.07 1.25 1.31 1.32 1.34 1.34 1.40 1.46 1.44 1.34 1.31 1.37 1.41 1.54 1.67 1.71 1.88 1.85 1.86 2.02 2.27 2.54 2.54 2.41 2.17 2.02 1.97 1.94 1.90 1.94 1.92 1.83
0.74 0.85 0.89 0.91 0.94 0.90 0.83 0.81 0.85 0.83 0.82 0.96 1.12 1.28 1.33 1.32 1.28 1.36 1.43 1.45 1.39 1.24 1.19 1.21 1.26 1.40 1.67 1.78 1.74 1.94 2.09 2.14 2.28 2.42 2.41 2.34 2.17 1.99 1.86 1.77 1.85 1.91 1.95
0.63 0.75 0.92 0.95 0.86 0.82 0.74 0.72 0.75 0.74 0.72 0.81 0.96 1.13 1.23 1.21 1.60 1.60 1.43 1.42 1.39 1.26 1.16 1.15 1.12 1.11 1.33 1.63 1.78 1.91 2.03 2.11 2.16 2.19 2.23 2.17 2.11 2.05 2.10 2.04 1.92 1.85 1.84
0.57 0.71 0.91 0.90 0.78 0.72 0.76 0.79 0.76 0.74 0.74 0.79 0.83 0.85 0.95 1.24 1.29 1.08 1.13 1.18 1.30 1.21 1.10 1.02 0.94 0.93 1.08 1.17 1.34 1.45 1.65 1.95 2.15 2.20 2.07 1.94 2.03 2.00 2.04 2.06 1.97 1.89 1.79
0.49 0.59 0.76 0.77 0.74 0.77 0.76 0.73 0.68 0.63 0.62 0.66 0.68 0.72 0.80 0.94 0.94 0.89 0.99 0.95 1.10 1.11 1.02 0.97 0.96 0.95 1.01 1.06 1.19 1.33 1.35 1.44 1.67 1.74 1.75 1.77 1.83 1.98 2.04 2.06 2.13 2.06 2.03
0.36 0.46 0.56 0.58 0.62 0.64 0.62 0.62 0.58 0.54 0.55 0.58 0.62 0.69 0.78 0.78 0.80 0.78 0.85 0.97 1.13 1.10 0.98 0.98 0.96 0.94 1.11 1.18 1.17 1.26 1.36 1.35 1.47 1.64 1.85 1.83 1.75 1.76 1.87 1.91 2.02 2.05 2.04
0.27 0.36 0.46 0.48 0.50 0.51 0.56 0.58 0.58 0.54 0.51 0.52 0.54 0.58 0.66 0.70 0.83 0.70 0.79 0.99 1.12 1.15 1.12 1.01 1.11 1.10 1.21 1.18 1.14 1.28 1.36 1.22 1.14 1.24 1.40 1.44 1.36 1.38 1.59 1.61 1.81 1.95 1.86
0.17 0.24 0.31 0.39 0.46 0.53 0.58 0.59 0.62 0.59 0.54 0.53 0.58 0.59 0.58 0.69 0.83 0.78 0.82 0.91 1.12 1.18 1.21 1.14 1.00 1.06 1.05 1.11 1.19 1.27 1.47 1.32 1.18 1.24 1.35 1.33 1.21 1.19 1.26 1.34 1.48 1.74 1.80
0.12 0.18 0.26 0.35 0.43 0.52 0.62 0.64 0.63 0.62 0.61 0.62 0.62 0.65 0.63 0.62 0.71 0.76 0.80 0.88 0.99 1.04 1.14 1.11 1.03 1.06 0.92 0.92 0.98 1.12 1.39 1.31 1.17 1.20 1.26 1.26 1.21 1.13 1.17 1.19 1.26 1.38 1.53
0.10 0.14 0.21 0.25 0.28 0.34 0.43 0.53 0.59 0.61 0.61 0.61 0.65 0.73 0.75 0.69 0.73 0.85 0.74 0.73 0.81 0.84 0.86 0.97 0.94 0.89 0.81 0.76 0.86 0.98 1.10 1.23 1.25 1.19 1.13 1.12 1.11 1.09 1.14 1.11 1.11 1.19 1.24
0.10 0.12 0.15 0.17 0.17 0.19 0.29 0.36 0.42 0.49 0.55 0.62 0.69 0.77 0.86 0.82 0.75 0.73 0.68 0.66 0.69 0.66 0.61 0.61 0.63 0.66 0.65 0.66 0.72 0.78 0.91 1.11 1.25 1.18 1.06 1.08 1.08 1.07 1.08 1.02 1.03 1.10 1.14
0.09 0.09 0.11 0.13 0.15 0.17 0.22 0.30 0.34 0.42 0.46 0.51 0.61 0.73 0.79 0.79 0.80 0.88 0.86 0.81 0.78 0.76 0.71 0.63 0.58 0.61 0.67 0.72 0.73 0.73 0.80 0.94 1.04 1.04 0.98 0.95 0.99 1.03 1.03 0.97 0.94 0.98 1.02
0.15 0.12 0.11 0.13 0.16 0.18 0.20 0.23 0.22 0.26 0.27 0.31 0.37 0.44 0.50 0.55 0.56 0.54 0.60 0.67 0.67 0.65 0.76 0.80 0.77 0.79 0.79 0.76 0.76 0.71 0.68 0.73 0.86 0.93 0.93 0.89 0.86 0.91 0.97 0.96 0.95 0.97 0.99
0.23 0.21 0.17 0.15 0.17 0.19 0.19 0.20 0.22 0.20 0.18 0.18 0.21 0.28 0.36 0.38 0.38 0.37 0.41 0.49 0.56 0.59 0.73 0.76 0.70 0.65 0.64 0.61 0.62 0.63 0.62 0.62 0.66 0.77 0.82 0.84 0.81 0.83 0.92 0.97 0.98 1.02 1.03
0.12 0.14 0.16 0.20 0.17 0.18 0.22 0.30 0.34 0.36 0.30 0.22 0.18 0.20 0.25 0.30 0.33 0.36 0.40 0.43 0.43 0.45 0.52 0.60 0.57 0.53 0.49 0.48 0.48 0.47 0.50 0.52 0.55 0.61 0.69 0.74 0.80 0.83 0.86 0.93 0.97 0.96 0.97
0.09 0.13 0.20 0.22 0.19 0.20 0.27 0.37 0.42 0.42 0.39 0.30 0.20 0.16 0.17 0.20 0.25 0.30 0.35 0.39 0.38 0.33 0.34 0.42 0.45 0.45 0.42 0.38 0.35 0.34 0.35 0.36 0.40 0.48 0.57 0.63 0.69 0.75 0.79 0.84 0.89 0.95 0.95
0.13 0.16 0.23 0.28 0.24 0.25 0.28 0.28 0.27 0.30 0.29 0.24 0.20 0.19 0.18 0.19 0.20 0.22 0.26 0.29 0.31 0.29 0.30 0.33 0.35 0.36 0.35 0.35 0.33 0.31 0.33 0.34 0.34 0.39 0.47 0.57 0.62 0.64 0.65 0.70 0.79 0.84 0.83
0.15 0.14 0.15 0.26 0.29 0.25 0.24 0.22 0.23 0.26 0.24 0.21 0.19 0.18 0.20 0.21 0.22 0.23 0.24 0.27 0.29 0.31 0.31 0.30 0.30 0.34 0.34 0.33 0.32 0.33 0.34 0.34 0.33 0.36 0.40 0.45 0.50 0.54 0.57 0.59 0.62 0.68 0.74
0.12 0.12 0.14 0.23 0.28 0.23 0.20 0.21 0.23 0.23 0.22 0.20 0.18 0.16 0.17 0.18 0.20 0.23 0.25 0.29 0.31 0.33 0.33 0.31 0.32 0.35 0.37 0.34 0.32 0.34 0.36 0.37 0.35 0.37 0.40 0.43 0.45 0.47 0.51 0.52 0.54 0.58 0.61
0.11 0.11 0.12 0.16 0.17 0.15 0.15 0.19 0.21 0.23 0.21 0.20 0.18 0.18 0.17 0.17 0.18 0.21 0.26 0.33 0.38 0.38 0.34 0.30 0.32 0.36 0.39 0.39 0.38 0.38 0.37 0.37 0.37 0.39 0.42 0.46 0.48 0.51 0.53 0.55 0.55 0.59 0.64
0.12 0.12 0.13 0.15 0.16 0.17 0.21 0.22 0.21 0.21 0.23 0.23 0.21 0.21 0.20 0.19 0.18 0.20 0.25 0.31 0.34 0.35 0.34 0.31 0.32 0.36 0.41 0.44 0.46 0.44 0.40 0.39 0.36 0.36 0.40 0.44 0.47 0.49 0.52 0.54 0.57 0.59 0.65
0.13 0.13 0.14 0.15 0.16 0.19 0.22 0.23 0.21 0.22 0.24 0.27 0.27 0.25 0.24 0.24 0.22 0.22 0.23 0.28 0.29 0.29 0.30 0.32 0.36 0.39 0.41 0.41 0.42 0.45 0.53 0.52 0.45 0.42 0.41 0.45 0.49 0.50 0.54 0.58 0.62 0.65 0.70
0.13 0.12 0.14 0.17 0.19 0.21 0.23 0.25 0.23 0.23 0.25 0.27 0.30 0.31 0.31 0.28 0.25 0.25 0.27 0.29 0.28 0.28 0.31 0.32 0.34 0.37 0.39 0.40 0.38 0.40 0.45 0.44 0.44 0.45 0.43 0.44 0.49 0.54 0.59 0.63 0.66 0.72 0.79

GEFSGL_prec_meanprecacc_222.txt.gz
Total_Precipitation_Accumulation
0.97 1.03 1.01 1.07 1.18 1.45 1.67 1.61 1.43 1.42 1.44 1.40 1.35 1.43 1.58 1.71 1.82 1.95 2.01 2.02 2.05 2.19 2.13 2.09 2.16 2.27 2.52 2.48 2.53 2.52 2.42 2.33 2.30 2.09 1.72 1.72 1.96 2.06 1.97 1.77 1.62 1.60 1.43
0.79 0.84 0.91 0.93 1.04 1.17 1.28 1.30 1.24 1.15 1.12 1.18 1.22 1.24 1.32 1.49 1.61 1.66 1.68 1.71 1.78 1.91 1.97 1.92 1.94 2.01 2.13 2.34 2.45 2.44 2.45 2.39 2.38 2.33 2.00 1.81 1.78 1.90 1.99 1.96 1.71 1.56 1.47
0.71 0.77 0.84 0.86 0.88 0.92 0.94 0.87 0.91 0.92 0.99 1.04 1.16 1.21 1.29 1.36 1.52 1.54 1.52 1.49 1.53 1.61 1.74 1.82 1.86 1.89 1.91 2.04 2.02 2.11 2.25 2.41 2.49 2.41 2.25 2.03 1.87 1.85 1.93 1.90 1.83 1.85 1.61
0.82 0.89 0.92 0.93 0.92 0.93 0.92 0.89 0.91 0.92 0.96 1.07 1.26 1.32 1.33 1.34 1.34 1.40 1.47 1.44 1.34 1.31 1.37 1.42 1.54 1.68 1.71 1.89 1.86 1.87 2.03 2.28 2.55 2.55 2.42 2.18 2.03 1.98 1.96 1.91 1.96 1.94 1.84
0.74 0.85 0.89 0.92 0.94 0.90 0.83 0.81 0.86 0.85 0.84 0.97 1.13 1.29 1.34 1.33 1.29 1.36 1.43 1.45 1.39 1.25 1.20 1.21 1.26 1.40 1.68 1.79 1.75 1.95 2.10 2.15 2.30 2.43 2.42 2.35 2.19 2.01 1.88 1.80 1.88 1.93 1.96
0.63 0.75 0.92 0.95 0.87 0.82 0.74 0.73 0.75 0.75 0.74 0.83 0.97 1.15 1.24 1.22 1.61 1.61 1.44 1.42 1.39 1.26 1.17 1.15 1.12 1.12 1.33 1.63 1.78 1.91 2.04 2.12 2.17 2.20 2.24 2.18 2.13 2.07 2.12 2.06 1.94 1.87 1.85
0.57 0.72 0.91 0.90 0.79 0.73 0.76 0.80 0.76 0.74 0.75 0.81 0.85 0.87 0.97 1.25 1.31 1.10 1.14 1.18 1.30 1.21 1.10 1.03 0.94 0.93 1.08 1.18 1.35 1.46 1.66 1.96 2.16 2.20 2.08 1.95 2.04 2.01 2.05 2.08 1.99 1.91 1.81
0.49 0.60 0.76 0.77 0.74 0.78 0.77 0.74 0.69 0.64 0.63 0.67 0.70 0.74 0.81 0.95 0.96 0.90 1.00 0.95 1.11 1.11 1.02 0.98 0.96 0.96 1.01 1.06 1.20 1.35 1.37 1.45 1.69 1.75 1.76 1.78 1.83 1.98 2.04 2.07 2.14 2.07 2.04
0.37 0.46 0.57 0.59 0.63 0.65 0.63 0.63 0.59 0.56 0.57 0.58 0.62 0.70 0.79 0.79 0.81 0.80 0.86 0.97 1.13 1.10 0.98 0.98 0.96 0.94 1.12 1.18 1.18 1.28 1.38 1.36 1.48 1.65 1.86 1.84 1.75 1.76 1.87 1.91 2.03 2.06 2.05
0.27 0.36 0.46 0.49 0.51 0.52 0.56 0.59 0.59 0.55 0.53 0.53 0.55 0.59 0.67 0.71 0.84 0.71 0.80 0.99 1.12 1.16 1.12 1.02 1.12 1.11 1.22 1.19 1.15 1.30 1.37 1.23 1.15 1.25 1.41 1.45 1.36 1.38 1.59 1.61 1.82 1.95 1.87
0.18 0.25 0.32 0.40 0.47 0.54 0.60 0.60 0.64 0.61 0.56 0.54 0.59 0.60 0.59 0.69 0.83 0.79 0.83 0.92 1.13 1.18 1.22 1.14 1.01 1.06 1.06 1.12 1.19 1.28 1.47 1.32 1.18 1.25 1.36 1.34 1.22 1.19 1.27 1.35 1.50 1.76 1.81
0.13 0.18 0.27 0.35 0.44 0.53 0.64 0.67 0.65 0.64 0.62 0.63 0.64 0.66 0.64 0.63 0.71 0.77 0.81 0.88 1.00 1.04 1.15 1.12 1.03 1.06 0.93 0.93 0.99 1.12 1.41 1.32 1.18 1.22 1.27 1.28 1.22 1.13 1.17 1.19 1.27 1.39 1.53
0.11 0.15 0.21 0.26 0.29 0.35 0.45 0.55 0.61 0.63 0.63 0.62 0.67 0.74 0.76 0.70 0.74 0.86 0.75 0.74 0.82 0.86 0.88 0.99 0.95 0.91 0.83 0.78 0.87 1.00 1.12 1.25 1.27 1.21 1.14 1.13 1.12 1.10 1.14 1.11 1.11 1.20 1.24
0.10 0.13 0.15 0.17 0.17 0.20 0.30 0.38 0.44 0.52 0.57 0.64 0.70 0.78 0.87 0.83 0.76 0.74 0.69 0.68 0.72 0.68 0.62 0.63 0.65 0.69 0.68 0.68 0.74 0.81 0.94 1.14 1.27 1.21 1.08 1.09 1.09 1.08 1.10 1.03 1.04 1.10 1.14
0.10 0.10 0.12 0.14 0.15 0.17 0.23 0.31 0.36 0.44 0.48 0.54 0.62 0.74 0.81 0.80 0.81 0.90 0.89 0.85 0.80 0.77 0.72 0.63 0.59 0.62 0.69 0.74 0.75 0.74 0.82 0.96 1.07 1.07 1.01 0.97 1.01 1.05 1.05 0.98 0.95 0.99 1.03
0.15 0.12 0.12 0.14 0.17 0.18 0.20 0.23 0.24 0.27 0.29 0.34 0.40 0.46 0.52 0.57 0.59 0.59 0.65 0.70 0.69 0.67 0.77 0.81 0.78 0.80 0.80 0.77 0.78 0.73 0.70 0.75 0.89 0.97 0.98 0.94 0.91 0.94 0.99 0.98 0.97 0.99 1.01
0.24 0.21 0.18 0.16 0.17 0.19 0.20 0.21 0.23 0.21 0.19 0.20 0.23 0.30 0.38 0.42 0.43 0.42 0.44 0.51 0.58 0.60 0.74 0.77 0.71 0.66 0.64 0.61 0.63 0.64 0.65 0.65 0.70 0.81 0.87 0.90 0.87 0.88 0.96 1.01 1.01 1.04 1.05
0.12 0.14 0.16 0.20 0.18 0.18 0.23 0.30 0.35 0.37 0.32 0.24 0.20 0.24 0.29 0.34 0.36 0.38 0.41 0.44 0.44 0.46 0.53 0.61 0.58 0.54 0.49 0.49 0.49 0.48 0.51 0.56 0.60 0.66 0.74 0.79 0.84 0.88 0.91 0.97 1.00 0.99 1.00
0.09 0.13 0.20 0.23 0.20 0.20 0.27 0.37 0.43 0.43 0.40 0.31 0.21 0.17 0.19 0.22 0.26 0.31 0.36 0.40 0.39 0.34 0.36 0.43 0.46 0.46 0.43 0.39 0.36 0.36 0.37 0.39 0.43 0.52 0.60 0.67 0.72 0.78 0.83 0.87 0.92 0.98 0.97
0.13 0.17 0.24 0.29 0.25 0.26 0.29 0.28 0.28 0.30 0.29 0.24 0.21 0.19 0.19 0.19 0.21 0.23 0.27 0.30 0.32 0.31 0.32 0.36 0.38 0.38 0.37 0.36 0.34 0.32 0.34 0.36 0.37 0.42 0.50 0.60 0.64 0.66 0.67 0.73 0.82 0.87 0.86
0.16 0.15 0.16 0.27 0.29 0.26 0.25 0.23 0.24 0.26 0.24 0.21 0.19 0.18 0.21 0.21 0.23 0.23 0.25 0.28 0.30 0.32 0.33 0.32 0.33 0.38 0.37 0.35 0.34 0.35 0.35 0.36 0.35 0.38 0.42 0.47 0.52 0.57 0.59 0.61 0.64 0.71 0.76
0.13 0.13 0.14 0.23 0.28 0.24 0.21 0.22 0.24 0.24 0.23 0.21 0.18 0.17 0.18 0.19 0.21 0.24 0.25 0.30 0.32 0.35 0.35 0.33 0.35 0.38 0.40 0.37 0.36 0.36 0.38 0.39 0.37 0.38 0.42 0.44 0.46 0.49 0.53 0.54 0.56 0.60 0.63
0.13 0.13 0.13 0.17 0.18 0.15 0.16 0.19 0.22 0.24 0.22 0.20 0.19 0.19 0.18 0.18 0.19 0.22 0.27 0.34 0.39 0.40 0.36 0.33 0.35 0.40 0.43 0.42 0.41 0.40 0.39 0.39 0.39 0.40 0.44 0.48 0.50 0.53 0.55 0.57 0.57 0.61 0.66
0.15 0.15 0.15 0.17 0.17 0.18 0.22 0.23 0.22 0.22 0.24 0.24 0.22 0.22 0.21 0.20 0.20 0.22 0.27 0.33 0.37 0.37 0.36 0.34 0.34 0.38 0.43 0.46 0.47 0.45 0.42 0.40 0.38 0.38 0.42 0.46 0.49 0.51 0.54 0.57 0.60 0.62 0.68
0.15 0.15 0.16 0.17 0.18 0.20 0.23 0.24 0.23 0.23 0.25 0.28 0.29 0.26 0.26 0.25 0.24 0.23 0.25 0.29 0.31 0.31 0.33 0.35 0.39 0.42 0.44 0.42 0.43 0.46 0.54 0.53 0.46 0.43 0.42 0.46 0.50 0.53 0.56 0.61 0.64 0.67 0.72
0.15 0.14 0.16 0.19 0.22 0.23 0.25 0.27 0.25 0.25 0.27 0.28 0.31 0.32 0.32 0.30 0.27 0.27 0.29 0.31 0.30 0.30 0.32 0.34 0.36 0.39 0.41 0.42 0.39 0.41 0.46 0.45 0.45 0.46 0.44 0.46 0.50 0.56 0.61 0.65 0.68 0.74 0.80

GEFSGL_prec_meanprecacc_228.txt.gz
Total_Precipitation_Accumulation
0.98 1.03 1.02 1.09 1.20 1.47 1.69 1.63 1.44 1.43 1.44 1.41 1.35 1.43 1.58 1.71 1.82 1.95 2.01 2.02 2.05 2.19 2.13 2.09 2.16 2.27 2.52 2.49 2.54 2.53 2.43 2.35 2.31 2.09 1.73 1.72 1.97 2.06 1.97 1.78 1.62 1.60 1.43
0.79 0.84 0.92 0.94 1.04 1.18 1.29 1.31 1.25 1.16 1.13 1.18 1.23 1.24 1.32 1.49 1.61 1.66 1.68 1.71 1.78 1.91 1.97 1.92 1.94 2.01 2.13 2.34 2.45 2.45 2.46 2.40 2.39 2.35 2.00 1.82 1.78 1.91 1.99 1.96 1.71 1.57 1.47
0.72 0.79 0.85 0.86 0.89 0.93 0.95 0.89 0.93 0.94 0.99 1.05 1.16 1.21 1.29 1.37 1.52 1.54 1.52 1.49 1.53 1.61 1.74 1.82 1.86 1.89 1.91 2.04 2.02 2.11 2.25 2.41 2.50 2.42 2.26 2.04 1.87 1.86 1.94 1.90 1.83 1.85 1.62
0.84 0.90 0.93 0.94 0.93 0.94 0.92 0.90 0.92 0.93 0.97 1.08 1.26 1.32 1.33 1.34 1.34 1.40 1.47 1.44 1.34 1.31 1.37 1.42 1.54 1.68 1.71 1.89 1.87 1.87 2.03 2.28 2.55 2.56 2.43 2.20 2.04 1.99 1.97 1.92 1.96 1.95 1.84
0.76 0.86 0.90 0.93 0.95 0.92 0.84 0.81 0.86 0.86 0.85 0.98 1.14 1.29 1.34 1.33 1.29 1.36 1.43 1.45 1.39 1.25 1.20 1.21 1.26 1.40 1.68 1.79 1.75 1.95 2.10 2.15 2.30 2.44 2.43 2.36 2.20 2.02 1.89 1.81 1.88 1.94 1.96
0.66 0.77 0.93 0.96 0.88 0.83 0.74 0.73 0.76 0.75 0.75 0.84 0.98 1.15 1.25 1.23 1.61 1.61 1.44 1.42 1.39 1.26 1.17 1.15 1.12 1.12 1.33 1.63 1.78 1.91 2.04 2.12 2.17 2.21 2.25 2.19 2.14 2.08 2.13 2.07 1.95 1.88 1.86
0.59 0.74 0.93 0.92 0.80 0.73 0.77 0.80 0.77 0.75 0.76 0.82 0.86 0.87 0.97 1.26 1.31 1.10 1.14 1.19 1.30 1.22 1.10 1.03 0.94 0.93 1.08 1.18 1.35 1.46 1.66 1.96 2.17 2.21 2.09 1.95 2.04 2.02 2.06 2.09 2.00 1.92 1.82
0.51 0.62 0.78 0.78 0.76 0.79 0.77 0.74 0.69 0.65 0.63 0.68 0.71 0.75 0.82 0.96 0.96 0.91 1.01 0.96 1.11 1.12 1.02 0.98 0.96 0.96 1.01 1.06 1.20 1.35 1.37 1.46 1.69 1.75 1.76 1.78 1.84 1.99 2.05 2.08 2.15 2.08 2.05
0.39 0.49 0.59 0.60 0.64 0.66 0.64 0.64 0.60 0.57 0.58 0.59 0.63 0.71 0.80 0.80 0.82 0.81 0.87 0.99 1.14 1.11 0.99 0.99 0.97 0.95 1.12 1.19 1.18 1.28 1.38 1.36 1.48 1.65 1.87 1.85 1.76 1.77 1.88 1.93 2.05 2.07 2.05
0.29 0.38 0.48 0.50 0.52 0.54 0.59 0.61 0.61 0.57 0.54 0.54 0.56 0.60 0.69 0.74 0.87 0.73 0.82 1.01 1.14 1.17 1.13 1.03 1.12 1.11 1.22 1.19 1.15 1.30 1.37 1.23 1.15 1.25 1.42 1.47 1.39 1.41 1.61 1.63 1.83 1.97 1.88
0.19 0.26 0.33 0.41 0.48 0.57 0.63 0.64 0.66 0.62 0.57 0.56 0.61 0.61 0.60 0.71 0.86 0.82 0.85 0.94 1.14 1.20 1.23 1.16 1.02 1.07 1.06 1.12 1.20 1.28 1.48 1.32 1.18 1.25 1.37 1.35 1.24 1.22 1.30 1.37 1.51 1.77 1.82
0.15 0.20 0.29 0.37 0.45 0.55 0.66 0.70 0.67 0.66 0.64 0.64 0.65 0.67 0.64 0.63 0.72 0.79 0.84 0.90 1.02 1.06 1.16 1.13 1.05 1.07 0.93 0.94 0.99 1.13 1.41 1.33 1.18 1.22 1.27 1.28 1.23 1.15 1.19 1.21 1.29 1.40 1.54
0.12 0.16 0.23 0.27 0.30 0.36 0.47 0.57 0.63 0.64 0.64 0.63 0.67 0.75 0.77 0.71 0.75 0.87 0.77 0.76 0.84 0.88 0.90 1.00 0.96 0.92 0.84 0.78 0.88 1.00 1.12 1.26 1.27 1.21 1.15 1.14 1.13 1.12 1.16 1.14 1.14 1.22 1.25
0.12 0.15 0.17 0.19 0.19 0.21 0.32 0.40 0.46 0.53 0.58 0.65 0.71 0.79 0.88 0.84 0.78 0.75 0.70 0.70 0.74 0.70 0.65 0.64 0.66 0.69 0.68 0.69 0.75 0.81 0.94 1.15 1.28 1.21 1.09 1.10 1.11 1.11 1.13 1.06 1.07 1.13 1.17
0.12 0.12 0.14 0.16 0.18 0.19 0.24 0.33 0.38 0.46 0.50 0.55 0.64 0.76 0.83 0.82 0.83 0.92 0.91 0.87 0.83 0.80 0.74 0.65 0.59 0.62 0.69 0.74 0.75 0.75 0.82 0.97 1.08 1.08 1.02 0.98 1.01 1.06 1.06 1.00 0.98 1.02 1.07
0.17 0.15 0.14 0.15 0.18 0.20 0.21 0.24 0.26 0.30 0.31 0.35 0.41 0.48 0.54 0.59 0.62 0.61 0.68 0.73 0.72 0.69 0.79 0.82 0.79 0.81 0.80 0.77 0.78 0.73 0.70 0.76 0.89 0.97 0.99 0.95 0.92 0.96 1.01 1.00 0.99 1.02 1.04
0.26 0.23 0.19 0.17 0.19 0.21 0.21 0.21 0.24 0.23 0.21 0.21 0.24 0.32 0.41 0.45 0.45 0.44 0.47 0.53 0.59 0.62 0.75 0.78 0.72 0.67 0.65 0.62 0.64 0.65 0.65 0.65 0.71 0.82 0.88 0.91 0.88 0.91 1.01 1.04 1.04 1.08 1.09
0.15 0.17 0.19 0.21 0.19 0.20 0.25 0.32 0.37 0.40 0.33 0.25 0.22 0.26 0.32 0.36 0.38 0.40 0.43 0.46 0.45 0.47 0.54 0.62 0.59 0.54 0.50 0.50 0.49 0.48 0.52 0.56 0.60 0.67 0.75 0.80 0.86 0.91 0.97 1.02 1.05 1.03 1.04
0.12 0.15 0.23 0.26 0.22 0.21 0.29 0.39 0.44 0.45 0.42 0.32 0.23 0.19 0.21 0.24 0.28 0.32 0.37 0.41 0.40 0.35 0.37 0.44 0.47 0.47 0.44 0.40 0.37 0.37 0.38 0.40 0.45 0.53 0.61 0.68 0.74 0.80 0.85 0.91 0.96 1.01 1.01
0.15 0.19 0.27 0.32 0.27 0.27 0.30 0.30 0.29 0.32 0.31 0.25 0.21 0.21 0.21 0.21 0.22 0.24 0.28 0.31 0.33 0.32 0.33 0.37 0.39 0.39 0.38 0.37 0.35 0.33 0.35 0.37 0.38 0.44 0.52 0.61 0.66 0.67 0.68 0.74 0.83 0.89 0.88
0.18 0.17 0.19 0.29 0.32 0.28 0.26 0.25 0.26 0.28 0.26 0.22 0.20 0.19 0.21 0.22 0.23 0.24 0.26 0.28 0.30 0.32 0.34 0.33 0.34 0.39 0.38 0.36 0.36 0.36 0.36 0.37 0.36 0.40 0.44 0.49 0.54 0.58 0.60 0.62 0.65 0.72 0.78
0.16 0.17 0.17 0.25 0.30 0.25 0.22 0.24 0.26 0.26 0.25 0.22 0.19 0.17 0.19 0.20 0.22 0.25 0.27 0.30 0.33 0.35 0.35 0.34 0.35 0.39 0.41 0.39 0.37 0.38 0.40 0.41 0.40 0.41 0.44 0.46 0.48 0.50 0.54 0.55 0.57 0.61 0.65
0.17 0.16 0.16 0.19 0.20 0.17 0.18 0.21 0.23 0.25 0.24 0.22 0.20 0.20 0.19 0.19 0.20 0.23 0.28 0.35 0.41 0.41 0.37 0.34 0.36 0.41 0.44 0.44 0.43 0.42 0.42 0.41 0.41 0.42 0.46 0.50 0.52 0.54 0.57 0.58 0.58 0.63 0.68
0.18 0.20 0.20 0.21 0.20 0.21 0.24 0.25 0.23 0.23 0.25 0.25 0.23 0.23 0.23 0.21 0.21 0.23 0.28 0.34 0.38 0.38 0.38 0.36 0.36 0.40 0.45 0.48 0.50 0.48 0.44 0.43 0.40 0.40 0.44 0.48 0.51 0.53 0.55 0.58 0.61 0.64 0.70
0.18 0.19 0.20 0.21 0.22 0.24 0.27 0.28 0.26 0.25 0.27 0.30 0.30 0.28 0.27 0.26 0.25 0.25 0.27 0.32 0.33 0.33 0.34 0.36 0.40 0.44 0.46 0.45 0.46 0.48 0.57 0.56 0.49 0.45 0.44 0.48 0.52 0.54 0.58 0.62 0.66 0.69 0.73
0.17 0.17 0.19 0.22 0.25 0.26 0.29 0.31 0.30 0.29 0.30 0.32 0.34 0.35 0.34 0.31 0.29 0.29 0.30 0.33 0.31 0.31 0.34 0.36 0.38 0.41 0.44 0.44 0.42 0.44 0.49 0.49 0.48 0.48 0.46 0.47 0.52 0.57 0.62 0.66 0.69 0.75 0.81

GEFSGL_prec_meanprecacc_234.txt.gz
Total_Precipitation_Accumulation
0.99 1.04 1.03 1.11 1.22 1.48 1.70 1.64 1.45 1.43 1.45 1.42 1.37 1.45 1.59 1.71 1.82 1.95 2.01 2.02 2.06 2.19 2.13 2.09 2.16 2.27 2.52 2.49 2.54 2.53 2.43 2.35 2.31 2.09 1.73 1.73 1.97 2.07 1.98 1.78 1.62 1.61 1.44
0.80 0.86 0.93 0.96 1.06 1.19 1.30 1.32 1.26 1.16 1.13 1.19 1.24 1.25 1.34 1.50 1.62 1.66 1.68 1.71 1.78 1.91 1.97 1.92 1.94 2.01 2.13 2.34 2.45 2.45 2.46 2.40 2.40 2.35 2.01 1.82 1.79 1.91 2.00 1.97 1.72 1.57 1.48
0.74 0.81 0.86 0.88 0.91 0.94 0.96 0.90 0.94 0.94 1.00 1.06 1.18 1.22 1.30 1.38 1.52 1.54 1.52 1.49 1.53 1.61 1.74 1.82 1.86 1.89 1.91 2.04 2.02 2.11 2.25 2.41 2.50 2.42 2.27 2.05 1.88 1.87 1.95 1.92 1.85 1.87 1.63
0.86 0.92 0.95 0.96 0.96 0.96 0.94 0.91 0.92 0.93 0.97 1.08 1.27 1.33 1.34 1.36 1.36 1.41 1.47 1.44 1.34 1.31 1.37 1.42 1.54 1.68 1.71 1.89 1.87 1.87 2.03 2.28 2.55 2.57 2.44 2.20 2.05 2.00 1.97 1.93 1.98 1.96 1.86
0.79 0.88 0.92 0.96 0.98 0.94 0.85 0.82 0.87 0.86 0.85 0.98 1.15 1.31 1.35 1.34 1.30 1.37 1.44 1.46 1.39 1.25 1.20 1.21 1.26 1.40 1.68 1.79 1.75 1.95 2.10 2.15 2.30 2.44 2.43 2.36 2.20 2.03 1.90 1.82 1.89 1.95 1.98
0.68 0.79 0.96 0.99 0.90 0.85 0.76 0.74 0.76 0.76 0.75 0.84 0.98 1.16 1.26 1.24 1.63 1.62 1.45 1.43 1.40 1.26 1.17 1.15 1.12 1.12 1.33 1.63 1.78 1.91 2.04 2.12 2.17 2.21 2.25 2.19 2.14 2.08 2.13 2.08 1.96 1.89 1.87
0.61 0.76 0.95 0.94 0.82 0.75 0.79 0.81 0.78 0.75 0.76 0.82 0.86 0.88 0.98 1.27 1.32 1.11 1.15 1.20 1.31 1.22 1.10 1.03 0.94 0.93 1.08 1.18 1.35 1.46 1.66 1.96 2.17 2.21 2.09 1.96 2.04 2.02 2.06 2.10 2.01 1.93 1.84
0.53 0.63 0.79 0.80 0.77 0.80 0.79 0.75 0.70 0.65 0.64 0.68 0.71 0.76 0.83 0.97 0.97 0.92 1.02 0.97 1.11 1.12 1.02 0.98 0.96 0.96 1.01 1.06 1.20 1.35 1.37 1.46 1.69 1.75 1.76 1.78 1.84 1.99 2.05 2.09 2.16 2.09 2.06
0.40 0.50 0.61 0.62 0.65 0.67 0.65 0.65 0.61 0.57 0.58 0.59 0.63 0.72 0.81 0.81 0.83 0.82 0.88 0.99 1.14 1.11 0.99 0.99 0.97 0.95 1.12 1.19 1.18 1.28 1.38 1.36 1.48 1.65 1.87 1.85 1.76 1.77 1.88 1.93 2.06 2.09 2.08
0.30 0.39 0.50 0.53 0.54 0.55 0.60 0.62 0.61 0.57 0.55 0.55 0.56 0.60 0.69 0.74 0.87 0.74 0.83 1.02 1.14 1.17 1.13 1.03 1.13 1.12 1.22 1.19 1.15 1.30 1.38 1.23 1.15 1.25 1.42 1.47 1.39 1.41 1.61 1.63 1.84 1.98 1.90
0.21 0.28 0.35 0.43 0.50 0.58 0.65 0.65 0.67 0.63 0.58 0.56 0.61 0.62 0.61 0.72 0.87 0.83 0.87 0.94 1.15 1.20 1.23 1.16 1.03 1.08 1.07 1.13 1.20 1.28 1.48 1.33 1.19 1.25 1.37 1.35 1.24 1.22 1.30 1.38 1.52 1.79 1.84
0.16 0.22 0.31 0.39 0.47 0.57 0.68 0.72 0.69 0.67 0.65 0.65 0.65 0.68 0.65 0.64 0.73 0.81 0.85 0.91 1.03 1.07 1.17 1.14 1.05 1.08 0.94 0.94 1.00 1.13 1.42 1.33 1.19 1.22 1.28 1.29 1.23 1.15 1.20 1.22 1.30 1.42 1.56
0.13 0.18 0.24 0.29 0.32 0.39 0.50 0.60 0.65 0.66 0.65 0.64 0.68 0.75 0.77 0.72 0.76 0.89 0.78 0.78 0.85 0.89 0.92 1.01 0.97 0.93 0.85 0.80 0.89 1.02 1.14 1.27 1.28 1.22 1.16 1.15 1.14 1.12 1.17 1.14 1.15 1.23 1.26
0.14 0.17 0.18 0.20 0.21 0.24 0.36 0.43 0.48 0.54 0.59 0.66 0.72 0.80 0.89 0.85 0.78 0.75 0.71 0.71 0.75 0.72 0.66 0.66 0.67 0.70 0.70 0.70 0.76 0.83 0.95 1.16 1.29 1.22 1.09 1.10 1.11 1.11 1.13 1.06 1.07 1.14 1.18
0.14 0.14 0.15 0.17 0.19 0.21 0.26 0.36 0.41 0.48 0.52 0.57 0.65 0.77 0.84 0.83 0.84 0.93 0.92 0.88 0.85 0.82 0.77 0.67 0.61 0.64 0.71 0.76 0.77 0.76 0.84 0.97 1.08 1.08 1.02 0.98 1.02 1.06 1.07 1.01 0.98 1.03 1.08
0.19 0.16 0.15 0.16 0.20 0.22 0.24 0.27 0.28 0.32 0.34 0.37 0.42 0.48 0.55 0.60 0.63 0.63 0.69 0.75 0.73 0.71 0.81 0.84 0.80 0.82 0.82 0.79 0.79 0.75 0.71 0.77 0.90 0.98 0.99 0.95 0.92 0.96 1.02 1.01 1.00 1.02 1.05
0.27 0.25 0.21 0.19 0.21 0.24 0.23 0.24 0.28 0.26 0.23 0.24 0.26 0.33 0.41 0.45 0.46 0.46 0.49 0.56 0.61 0.63 0.77 0.80 0.74 0.68 0.66 0.63 0.65 0.66 0.66 0.66 0.71 0.82 0.89 0.91 0.89 0.92 1.02 1.06 1.05 1.09 1.11
0.17 0.19 0.20 0.23 0.21 0.23 0.28 0.35 0.40 0.44 0.36 0.27 0.24 0.28 0.32 0.37 0.39 0.41 0.45 0.49 0.48 0.49 0.56 0.63 0.60 0.56 0.52 0.51 0.51 0.50 0.53 0.57 0.60 0.67 0.76 0.81 0.87 0.92 0.98 1.04 1.07 1.06 1.07
0.13 0.16 0.24 0.27 0.24 0.24 0.32 0.42 0.48 0.49 0.46 0.35 0.25 0.21 0.23 0.26 0.30 0.34 0.39 0.43 0.42 0.37 0.38 0.46 0.49 0.49 0.46 0.41 0.39 0.38 0.39 0.41 0.46 0.54 0.62 0.69 0.75 0.81 0.87 0.93 0.98 1.03 1.03
0.16 0.20 0.28 0.33 0.28 0.30 0.33 0.33 0.33 0.36 0.35 0.30 0.25 0.23 0.23 0.23 0.24 0.26 0.30 0.33 0.34 0.33 0.34 0.39 0.41 0.41 0.40 0.39 0.37 0.34 0.36 0.38 0.40 0.45 0.53 0.63 0.68 0.69 0.70 0.75 0.85 0.91 0.90
0.20 0.19 0.20 0.30 0.33 0.30 0.29 0.28 0.30 0.33 0.30 0.26 0.24 0.23 0.25 0.24 0.25 0.26 0.28 0.30 0.31 0.34 0.35 0.34 0.36 0.41 0.40 0.38 0.37 0.38 0.38 0.38 0.37 0.42 0.46 0.50 0.55 0.59 0.61 0.64 0.67 0.74 0.80
0.19 0.19 0.18 0.27 0.32 0.28 0.25 0.27 0.29 0.29 0.27 0.24 0.23 0.20 0.21 0.21 0.23 0.26 0.27 0.31 0.34 0.36 0.36 0.35 0.36 0.40 0.44 0.42 0.39 0.41 0.42 0.42 0.41 0.42 0.46 0.47 0.49 0.51 0.55 0.57 0.59 0.63 0.67
0.20 0.19 0.17 0.21 0.23 0.20 0.21 0.24 0.26 0.28 0.26 0.24 0.23 0.22 0.21 0.21 0.21 0.24 0.29 0.36 0.42 0.42 0.38 0.35 0.37 0.42 0.45 0.45 0.44 0.44 0.43 0.42 0.42 0.43 0.47 0.51 0.53 0.56 0.58 0.60 0.60 0.64 0.70
0.20 0.22 0.22 0.23 0.23 0.25 0.28 0.28 0.26 0.25 0.28 0.28 0.25 0.25 0.25 0.23 0.23 0.25 0.30 0.35 0.39 0.40 0.39 0.37 0.37 0.41 0.46 0.49 0.50 0.49 0.45 0.43 0.41 0.41 0.45 0.49 0.52 0.54 0.57 0.60 0.63 0.66 0.72
0.20 0.21 0.22 0.23 0.25 0.27 0.32 0.32 0.29 0.28 0.30 0.32 0.33 0.30 0.29 0.28 0.27 0.27 0.29 0.33 0.35 0.35 0.36 0.38 0.42 0.46 0.47 0.46 0.46 0.49 0.58 0.57 0.50 0.46 0.45 0.50 0.53 0.56 0.60 0.64 0.68 0.71 0.75
0.20 0.19 0.21 0.25 0.27 0.29 0.32 0.35 0.33 0.32 0.33 0.35 0.37 0.39 0.38 0.34 0.32 0.31 0.33 0.36 0.35 0.34 0.37 0.39 0.41 0.43 0.46 0.46 0.43 0.45 0.51 0.50 0.49 0.50 0.48 0.49 0.54 0.59 0.64 0.68 0.71 0.77 0.83

GEFSGL_prec_meanprecacc_240.txt.gz
Total_Precipitation_Accumulation
1.00 1.05 1.03 1.11 1.22 1.48 1.70 1.64 1.46 1.44 1.46 1.42 1.37 1.45 1.59 1.72 1.83 1.96 2.02 2.03 2.06 2.19 2.13 2.09 2.16 2.27 2.52 2.49 2.54 2.53 2.44 2.35 2.32 2.09 1.73 1.73 1.97 2.07 1.98 1.78 1.62 1.61 1.44
0.82 0.86 0.94 0.96 1.07 1.19 1.30 1.32 1.26 1.17 1.13 1.19 1.24 1.26 1.34 1.51 1.62 1.67 1.68 1.72 1.79 1.91 1.98 1.92 1.94 2.01 2.13 2.34 2.45 2.45 2.46 2.40 2.40 2.35 2.01 1.82 1.79 1.92 2.00 1.97 1.72 1.58 1.48
0.76 0.82 0.87 0.89 0.91 0.95 0.97 0.90 0.94 0.95 1.00 1.06 1.18 1.23 1.30 1.38 1.53 1.55 1.53 1.49 1.54 1.61 1.74 1.82 1.86 1.89 1.91 2.04 2.02 2.11 2.25 2.41 2.51 2.43 2.27 2.05 1.88 1.87 1.95 1.92 1.85 1.87 1.63
0.87 0.93 0.96 0.97 0.97 0.97 0.95 0.92 0.93 0.94 0.97 1.09 1.27 1.33 1.34 1.36 1.37 1.42 1.48 1.45 1.34 1.31 1.37 1.42 1.54 1.68 1.71 1.90 1.87 1.87 2.03 2.28 2.56 2.57 2.44 2.20 2.05 2.00 1.97 1.93 1.98 1.96 1.87
0.80 0.90 0.93 0.97 1.00 0.95 0.87 0.83 0.88 0.87 0.86 0.99 1.15 1.31 1.35 1.34 1.30 1.38 1.45 1.47 1.40 1.25 1.20 1.21 1.26 1.40 1.68 1.79 1.75 1.95 2.10 2.15 2.30 2.44 2.43 2.36 2.20 2.03 1.90 1.82 1.89 1.95 1.98
0.70 0.81 0.97 1.01 0.92 0.86 0.77 0.76 0.77 0.76 0.75 0.85 0.99 1.16 1.26 1.24 1.63 1.63 1.45 1.44 1.41 1.27 1.17 1.16 1.12 1.12 1.33 1.63 1.78 1.91 2.04 2.12 2.17 2.21 2.25 2.19 2.14 2.08 2.13 2.08 1.97 1.89 1.87
0.63 0.77 0.97 0.95 0.84 0.78 0.81 0.83 0.79 0.76 0.77 0.83 0.87 0.88 0.98 1.27 1.33 1.12 1.16 1.20 1.32 1.23 1.11 1.03 0.94 0.93 1.08 1.18 1.35 1.46 1.66 1.96 2.17 2.21 2.09 1.96 2.04 2.02 2.06 2.10 2.01 1.93 1.84
0.54 0.65 0.80 0.81 0.79 0.82 0.80 0.77 0.72 0.67 0.65 0.69 0.71 0.76 0.83 0.97 0.98 0.92 1.03 0.97 1.12 1.13 1.03 0.98 0.97 0.96 1.01 1.06 1.20 1.35 1.37 1.46 1.69 1.75 1.76 1.78 1.84 1.99 2.05 2.09 2.16 2.10 2.06
0.40 0.51 0.63 0.63 0.67 0.68 0.66 0.65 0.62 0.58 0.59 0.60 0.64 0.72 0.81 0.81 0.83 0.82 0.89 1.00 1.15 1.11 0.99 0.99 0.97 0.95 1.13 1.19 1.19 1.28 1.38 1.36 1.48 1.66 1.87 1.85 1.76 1.78 1.88 1.93 2.06 2.10 2.08
0.31 0.40 0.51 0.54 0.56 0.56 0.61 0.63 0.62 0.58 0.55 0.55 0.57 0.61 0.69 0.74 0.88 0.74 0.84 1.02 1.15 1.18 1.13 1.03 1.13 1.12 1.23 1.19 1.15 1.30 1.38 1.23 1.16 1.25 1.42 1.47 1.39 1.41 1.61 1.63 1.84 1.99 1.91
0.22 0.29 0.35 0.43 0.51 0.60 0.66 0.66 0.68 0.64 0.59 0.57 0.62 0.62 0.61 0.72 0.87 0.84 0.87 0.95 1.15 1.21 1.24 1.17 1.03 1.08 1.07 1.13 1.20 1.28 1.48 1.33 1.19 1.25 1.37 1.35 1.24 1.23 1.30 1.38 1.52 1.79 1.85
0.17 0.22 0.31 0.39 0.48 0.58 0.69 0.73 0.70 0.68 0.66 0.66 0.66 0.68 0.66 0.65 0.74 0.81 0.85 0.92 1.03 1.07 1.17 1.14 1.06 1.09 0.95 0.95 1.00 1.14 1.42 1.34 1.20 1.23 1.28 1.29 1.24 1.16 1.20 1.22 1.31 1.43 1.57
0.14 0.18 0.25 0.30 0.32 0.40 0.51 0.61 0.66 0.67 0.66 0.65 0.69 0.76 0.78 0.72 0.77 0.89 0.79 0.78 0.86 0.89 0.92 1.02 0.98 0.94 0.86 0.80 0.90 1.02 1.14 1.27 1.29 1.23 1.16 1.15 1.15 1.13 1.18 1.15 1.16 1.24 1.28
0.16 0.18 0.20 0.22 0.22 0.25 0.37 0.44 0.49 0.55 0.60 0.67 0.73 0.81 0.89 0.86 0.79 0.76 0.72 0.71 0.76 0.72 0.67 0.66 0.67 0.71 0.70 0.71 0.77 0.83 0.96 1.16 1.30 1.22 1.10 1.10 1.11 1.11 1.13 1.07 1.08 1.15 1.19
0.15 0.15 0.16 0.18 0.20 0.22 0.28 0.38 0.44 0.49 0.53 0.58 0.66 0.79 0.85 0.84 0.84 0.94 0.93 0.89 0.86 0.83 0.77 0.67 0.61 0.64 0.71 0.76 0.77 0.77 0.85 0.99 1.10 1.10 1.04 0.99 1.02 1.07 1.07 1.01 0.99 1.03 1.09
0.20 0.17 0.16 0.17 0.21 0.23 0.25 0.29 0.31 0.35 0.36 0.38 0.44 0.49 0.56 0.61 0.64 0.64 0.70 0.75 0.75 0.72 0.82 0.84 0.81 0.83 0.82 0.79 0.80 0.76 0.73 0.78 0.91 1.00 1.01 0.96 0.93 0.97 1.02 1.01 1.00 1.03 1.06
0.28 0.26 0.22 0.20 0.22 0.25 0.25 0.25 0.30 0.29 0.26 0.26 0.28 0.35 0.42 0.46 0.46 0.46 0.50 0.56 0.62 0.64 0.78 0.80 0.74 0.69 0.68 0.65 0.67 0.68 0.68 0.68 0.73 0.84 0.91 0.93 0.90 0.93 1.02 1.06 1.06 1.10 1.12
0.18 0.20 0.22 0.24 0.23 0.24 0.30 0.37 0.42 0.46 0.39 0.30 0.27 0.30 0.34 0.38 0.39 0.42 0.46 0.50 0.49 0.50 0.57 0.64 0.61 0.58 0.54 0.54 0.54 0.53 0.55 0.59 0.63 0.70 0.78 0.83 0.89 0.93 0.98 1.04 1.07 1.06 1.08
0.14 0.17 0.25 0.28 0.25 0.26 0.34 0.44 0.50 0.51 0.48 0.38 0.28 0.25 0.25 0.27 0.31 0.36 0.41 0.44 0.44 0.39 0.40 0.48 0.51 0.51 0.48 0.44 0.41 0.41 0.43 0.44 0.48 0.56 0.64 0.71 0.77 0.82 0.87 0.94 0.98 1.04 1.04
0.18 0.22 0.30 0.35 0.30 0.32 0.36 0.36 0.35 0.38 0.38 0.33 0.29 0.27 0.26 0.25 0.26 0.29 0.33 0.36 0.37 0.36 0.37 0.41 0.43 0.43 0.41 0.40 0.39 0.37 0.39 0.41 0.43 0.48 0.56 0.65 0.70 0.71 0.71 0.76 0.86 0.92 0.91
0.24 0.23 0.25 0.34 0.35 0.32 0.32 0.30 0.32 0.35 0.32 0.30 0.28 0.27 0.27 0.26 0.27 0.29 0.30 0.32 0.34 0.36 0.36 0.35 0.37 0.43 0.41 0.39 0.38 0.39 0.40 0.40 0.41 0.45 0.48 0.52 0.57 0.61 0.63 0.65 0.68 0.75 0.81
0.23 0.24 0.24 0.32 0.35 0.30 0.27 0.29 0.31 0.32 0.31 0.29 0.27 0.25 0.25 0.24 0.25 0.28 0.29 0.33 0.35 0.37 0.38 0.36 0.37 0.41 0.45 0.43 0.41 0.42 0.44 0.44 0.43 0.45 0.48 0.49 0.51 0.53 0.56 0.58 0.60 0.64 0.68
0.23 0.23 0.23 0.27 0.28 0.25 0.24 0.26 0.29 0.31 0.30 0.28 0.26 0.26 0.24 0.24 0.24 0.27 0.31 0.38 0.43 0.43 0.39 0.36 0.38 0.43 0.46 0.47 0.46 0.46 0.45 0.45 0.45 0.45 0.49 0.53 0.55 0.57 0.59 0.61 0.61 0.65 0.71
0.24 0.27 0.28 0.29 0.28 0.29 0.32 0.31 0.29 0.29 0.31 0.31 0.29 0.28 0.28 0.26 0.25 0.27 0.32 0.37 0.41 0.41 0.41 0.39 0.38 0.42 0.47 0.51 0.52 0.50 0.47 0.46 0.43 0.43 0.47 0.51 0.53 0.55 0.58 0.61 0.64 0.66 0.72
0.24 0.25 0.26 0.29 0.30 0.32 0.36 0.36 0.32 0.32 0.33 0.36 0.36 0.33 0.32 0.30 0.29 0.28 0.30 0.35 0.36 0.37 0.38 0.40 0.44 0.47 0.49 0.48 0.48 0.51 0.60 0.59 0.51 0.48 0.47 0.51 0.55 0.57 0.61 0.65 0.69 0.72 0.76
0.24 0.24 0.26 0.30 0.32 0.33 0.36 0.38 0.37 0.36 0.37 0.38 0.40 0.42 0.41 0.37 0.34 0.33 0.35 0.38 0.37 0.36 0.39 0.41 0.43 0.45 0.48 0.48 0.45 0.47 0.53 0.51 0.50 0.51 0.49 0.50 0.55 0.60 0.65 0.70 0.73 0.78 0.84

GEFSGL_prec_meanprecacc_246.txt.gz
Total_Precipitation_Accumulation
1.01 1.06 1.04 1.12 1.23 1.49 1.71 1.65 1.46 1.45 1.46 1.43 1.38 1.46 1.60 1.72 1.83 1.96 2.02 2.03 2.07 2.20 2.14 2.09 2.17 2.28 2.53 2.49 2.55 2.54 2.44 2.35 2.32 2.10 1.74 1.73 1.98 2.07 1.98 1.79 1.63 1.61 1.45
0.82 0.88 0.95 0.97 1.08 1.20 1.32 1.34 1.27 1.18 1.14 1.20 1.25 1.26 1.34 1.51 1.62 1.67 1.68 1.72 1.79 1.92 1.98 1.92 1.94 2.01 2.13 2.34 2.46 2.45 2.46 2.40 2.40 2.35 2.01 1.83 1.79 1.92 2.01 1.97 1.72 1.58 1.48
0.77 0.83 0.89 0.89 0.92 0.96 0.98 0.91 0.96 0.96 1.01 1.07 1.18 1.23 1.31 1.39 1.54 1.55 1.53 1.50 1.54 1.61 1.74 1.82 1.86 1.89 1.92 2.04 2.02 2.11 2.25 2.41 2.51 2.43 2.27 2.05 1.88 1.87 1.95 1.92 1.85 1.88 1.63
0.88 0.94 0.97 0.97 0.97 0.98 0.96 0.93 0.94 0.95 0.99 1.10 1.28 1.34 1.35 1.37 1.37 1.42 1.48 1.45 1.35 1.32 1.38 1.42 1.55 1.68 1.71 1.90 1.87 1.87 2.04 2.28 2.56 2.57 2.44 2.20 2.05 2.00 1.98 1.93 1.98 1.97 1.87
0.80 0.91 0.95 0.98 1.01 0.96 0.88 0.84 0.88 0.87 0.87 1.00 1.16 1.31 1.36 1.34 1.31 1.38 1.45 1.47 1.40 1.25 1.20 1.21 1.26 1.40 1.68 1.79 1.75 1.96 2.11 2.16 2.30 2.44 2.44 2.37 2.21 2.04 1.91 1.82 1.89 1.95 1.98
0.71 0.82 0.99 1.04 0.94 0.87 0.78 0.77 0.78 0.77 0.77 0.86 1.00 1.17 1.27 1.24 1.64 1.63 1.46 1.44 1.41 1.27 1.17 1.16 1.12 1.12 1.34 1.63 1.78 1.91 2.05 2.13 2.17 2.21 2.25 2.19 2.14 2.08 2.14 2.08 1.97 1.90 1.88
0.64 0.79 0.98 0.97 0.86 0.80 0.82 0.84 0.80 0.78 0.79 0.84 0.88 0.89 0.99 1.28 1.34 1.13 1.16 1.21 1.32 1.23 1.11 1.04 0.95 0.93 1.09 1.18 1.35 1.46 1.66 1.96 2.17 2.21 2.09 1.96 2.04 2.02 2.07 2.11 2.02 1.94 1.84
0.54 0.66 0.82 0.83 0.80 0.83 0.82 0.78 0.73 0.68 0.66 0.70 0.73 0.77 0.84 0.98 0.99 0.93 1.03 0.98 1.12 1.13 1.03 0.99 0.97 0.97 1.02 1.06 1.20 1.35 1.38 1.46 1.69 1.75 1.76 1.78 1.84 1.99 2.06 2.09 2.17 2.10 2.07
0.41 0.52 0.63 0.64 0.68 0.70 0.68 0.67 0.63 0.59 0.60 0.60 0.64 0.72 0.81 0.81 0.83 0.82 0.90 1.00 1.15 1.12 1.00 1.00 0.98 0.96 1.13 1.20 1.19 1.29 1.39 1.36 1.49 1.66 1.87 1.86 1.76 1.78 1.88 1.94 2.06 2.10 2.09
0.31 0.41 0.51 0.55 0.56 0.57 0.62 0.65 0.64 0.59 0.57 0.56 0.57 0.61 0.69 0.74 0.88 0.75 0.85 1.03 1.15 1.18 1.14 1.04 1.14 1.13 1.24 1.20 1.16 1.31 1.38 1.23 1.16 1.26 1.42 1.47 1.39 1.41 1.61 1.64 1.85 1.99 1.91
0.24 0.31 0.36 0.44 0.52 0.60 0.67 0.68 0.71 0.66 0.60 0.58 0.62 0.63 0.61 0.72 0.88 0.85 0.88 0.95 1.16 1.21 1.24 1.17 1.03 1.09 1.08 1.14 1.21 1.29 1.49 1.33 1.19 1.25 1.37 1.35 1.24 1.23 1.30 1.38 1.53 1.80 1.86
0.17 0.23 0.33 0.40 0.49 0.59 0.70 0.74 0.72 0.71 0.69 0.68 0.68 0.69 0.66 0.65 0.75 0.83 0.87 0.93 1.04 1.08 1.18 1.15 1.06 1.10 0.96 0.96 1.01 1.15 1.43 1.35 1.20 1.23 1.29 1.29 1.24 1.16 1.21 1.23 1.31 1.44 1.58
0.15 0.19 0.26 0.31 0.34 0.42 0.52 0.62 0.68 0.69 0.68 0.68 0.72 0.78 0.79 0.73 0.78 0.91 0.80 0.79 0.87 0.90 0.93 1.03 0.99 0.95 0.87 0.81 0.91 1.03 1.15 1.28 1.29 1.23 1.17 1.15 1.15 1.13 1.18 1.16 1.16 1.25 1.28
0.16 0.19 0.21 0.23 0.23 0.26 0.39 0.46 0.50 0.56 0.61 0.69 0.76 0.83 0.91 0.87 0.80 0.77 0.73 0.73 0.77 0.73 0.67 0.67 0.68 0.72 0.71 0.72 0.78 0.85 0.97 1.17 1.30 1.23 1.10 1.11 1.12 1.12 1.14 1.07 1.08 1.15 1.20
0.16 0.16 0.17 0.19 0.21 0.23 0.29 0.39 0.45 0.50 0.54 0.59 0.68 0.81 0.87 0.85 0.86 0.95 0.95 0.90 0.87 0.84 0.78 0.68 0.62 0.65 0.72 0.77 0.78 0.78 0.86 1.00 1.11 1.10 1.04 1.00 1.03 1.07 1.08 1.02 0.99 1.04 1.10
0.21 0.18 0.17 0.18 0.22 0.24 0.26 0.31 0.34 0.37 0.38 0.41 0.46 0.52 0.58 0.63 0.66 0.65 0.72 0.77 0.76 0.74 0.83 0.86 0.82 0.84 0.83 0.80 0.81 0.77 0.73 0.79 0.93 1.01 1.02 0.97 0.94 0.98 1.04 1.02 1.01 1.04 1.07
0.29 0.26 0.23 0.21 0.24 0.27 0.27 0.28 0.33 0.34 0.33 0.33 0.34 0.41 0.48 0.51 0.50 0.49 0.52 0.59 0.64 0.66 0.79 0.82 0.76 0.70 0.69 0.66 0.68 0.68 0.69 0.69 0.74 0.86 0.92 0.95 0.92 0.94 1.04 1.08 1.07 1.11 1.12
0.19 0.21 0.23 0.26 0.24 0.26 0.32 0.39 0.45 0.50 0.44 0.35 0.33 0.36 0.40 0.42 0.43 0.45 0.49 0.51 0.50 0.52 0.58 0.65 0.63 0.59 0.55 0.56 0.55 0.54 0.57 0.60 0.64 0.71 0.79 0.85 0.91 0.95 1.00 1.06 1.09 1.07 1.08
0.16 0.19 0.26 0.30 0.27 0.28 0.36 0.47 0.52 0.54 0.51 0.42 0.32 0.28 0.30 0.31 0.34 0.38 0.42 0.45 0.45 0.40 0.42 0.50 0.53 0.53 0.50 0.46 0.43 0.43 0.44 0.46 0.49 0.57 0.66 0.72 0.78 0.83 0.89 0.95 0.99 1.05 1.05
0.20 0.25 0.32 0.37 0.33 0.34 0.38 0.39 0.37 0.41 0.41 0.37 0.33 0.31 0.31 0.30 0.29 0.31 0.34 0.37 0.39 0.37 0.38 0.43 0.45 0.45 0.43 0.42 0.40 0.38 0.40 0.43 0.45 0.50 0.57 0.67 0.71 0.73 0.73 0.78 0.87 0.92 0.92
0.28 0.28 0.29 0.36 0.37 0.35 0.35 0.33 0.35 0.37 0.34 0.32 0.31 0.30 0.32 0.31 0.31 0.31 0.32 0.34 0.35 0.37 0.38 0.37 0.39 0.44 0.43 0.41 0.40 0.41 0.41 0.42 0.42 0.46 0.50 0.54 0.59 0.63 0.65 0.67 0.70 0.76 0.82
0.27 0.28 0.28 0.35 0.38 0.33 0.30 0.31 0.34 0.35 0.33 0.31 0.30 0.29 0.31 0.29 0.30 0.31 0.32 0.35 0.37 0.39 0.39 0.37 0.39 0.43 0.47 0.46 0.44 0.44 0.46 0.46 0.44 0.46 0.50 0.51 0.53 0.55 0.58 0.59 0.61 0.65 0.69
0.28 0.28 0.28 0.31 0.32 0.29 0.27 0.29 0.33 0.36 0.33 0.31 0.30 0.29 0.29 0.28 0.28 0.31 0.35 0.41 0.46 0.45 0.41 0.39 0.40 0.45 0.49 0.50 0.49 0.49 0.48 0.47 0.46 0.47 0.51 0.55 0.57 0.59 0.61 0.62 0.62 0.66 0.72
0.32 0.33 0.34 0.35 0.33 0.35 0.37 0.35 0.33 0.34 0.36 0.35 0.32 0.32 0.32 0.30 0.30 0.32 0.37 0.42 0.46 0.45 0.44 0.41 0.41 0.45 0.50 0.53 0.55 0.53 0.50 0.48 0.45 0.45 0.49 0.53 0.56 0.57 0.60 0.63 0.65 0.67 0.73
0.34 0.34 0.36 0.38 0.36 0.37 0.40 0.39 0.35 0.35 0.38 0.41 0.40 0.36 0.35 0.33 0.32 0.32 0.35 0.40 0.40 0.40 0.41 0.43 0.47 0.50 0.52 0.50 0.51 0.53 0.63 0.62 0.54 0.49 0.48 0.53 0.57 0.59 0.63 0.67 0.70 0.73 0.77
0.32 0.33 0.36 0.42 0.42 0.39 0.40 0.42 0.40 0.39 0.41 0.43 0.46 0.47 0.44 0.40 0.37 0.36 0.39 0.42 0.41 0.39 0.41 0.43 0.45 0.48 0.50 0.50 0.47 0.50 0.56 0.54 0.53 0.54 0.51 0.52 0.57 0.62 0.67 0.72 0.75 0.81 0.87

GEFSGL_prec_meanprecacc_252.txt.gz
Total_Precipitation_Accumulation
1.04 1.09 1.07 1.14 1.25 1.51 1.72 1.66 1.47 1.46 1.48 1.44 1.39 1.47 1.61 1.72 1.83 1.97 2.03 2.04 2.08 2.22 2.15 2.11 2.18 2.28 2.53 2.49 2.55 2.54 2.44 2.36 2.32 2.10 1.74 1.73 1.98 2.08 1.98 1.79 1.63 1.62 1.45
0.88 0.92 0.98 0.99 1.10 1.22 1.32 1.34 1.28 1.19 1.16 1.22 1.27 1.28 1.36 1.52 1.64 1.68 1.69 1.73 1.80 1.92 1.99 1.94 1.95 2.02 2.14 2.35 2.46 2.46 2.47 2.41 2.40 2.36 2.02 1.83 1.79 1.92 2.01 1.97 1.72 1.58 1.48
0.83 0.91 0.96 0.94 0.95 0.98 0.99 0.92 0.96 0.97 1.03 1.08 1.20 1.25 1.32 1.40 1.55 1.56 1.54 1.51 1.54 1.62 1.75 1.82 1.87 1.90 1.93 2.05 2.03 2.12 2.26 2.42 2.51 2.43 2.27 2.05 1.89 1.87 1.96 1.92 1.85 1.88 1.63
0.92 1.01 1.05 1.04 1.02 1.01 0.98 0.94 0.94 0.95 0.99 1.11 1.30 1.36 1.37 1.38 1.39 1.44 1.50 1.46 1.36 1.32 1.38 1.42 1.55 1.68 1.72 1.90 1.87 1.88 2.04 2.29 2.56 2.57 2.45 2.21 2.06 2.01 1.98 1.94 1.98 1.97 1.87
0.82 0.94 1.00 1.05 1.08 1.00 0.90 0.86 0.90 0.88 0.87 1.01 1.18 1.33 1.38 1.37 1.33 1.40 1.48 1.50 1.42 1.27 1.21 1.22 1.27 1.41 1.68 1.79 1.75 1.96 2.11 2.16 2.30 2.44 2.44 2.37 2.21 2.05 1.91 1.82 1.90 1.95 1.98
0.72 0.83 1.02 1.09 1.01 0.92 0.81 0.79 0.80 0.78 0.77 0.87 1.01 1.19 1.29 1.27 1.67 1.66 1.48 1.46 1.42 1.28 1.18 1.16 1.13 1.12 1.34 1.64 1.79 1.92 2.05 2.13 2.18 2.21 2.25 2.19 2.14 2.08 2.14 2.08 1.97 1.90 1.88
0.65 0.81 1.00 1.00 0.92 0.86 0.86 0.87 0.82 0.79 0.79 0.85 0.89 0.90 1.00 1.30 1.36 1.15 1.19 1.22 1.34 1.24 1.12 1.04 0.95 0.94 1.09 1.19 1.35 1.47 1.67 1.97 2.18 2.21 2.09 1.96 2.04 2.02 2.07 2.11 2.02 1.95 1.85
0.56 0.67 0.84 0.85 0.84 0.88 0.87 0.83 0.75 0.69 0.66 0.70 0.74 0.78 0.85 0.99 1.00 0.95 1.06 1.00 1.15 1.15 1.04 1.00 0.98 0.97 1.02 1.07 1.21 1.35 1.38 1.47 1.70 1.76 1.77 1.79 1.84 1.99 2.06 2.09 2.17 2.10 2.07
0.42 0.53 0.65 0.67 0.72 0.74 0.72 0.73 0.68 0.62 0.61 0.61 0.66 0.74 0.83 0.83 0.85 0.84 0.92 1.03 1.18 1.14 1.02 1.01 0.98 0.96 1.13 1.20 1.19 1.29 1.39 1.37 1.49 1.66 1.88 1.86 1.77 1.78 1.89 1.94 2.06 2.10 2.09
0.33 0.43 0.54 0.58 0.59 0.61 0.66 0.69 0.69 0.63 0.59 0.58 0.59 0.63 0.72 0.76 0.90 0.77 0.86 1.06 1.18 1.20 1.16 1.06 1.15 1.14 1.24 1.21 1.16 1.31 1.39 1.24 1.16 1.26 1.42 1.47 1.39 1.41 1.61 1.64 1.85 1.99 1.91
0.25 0.33 0.41 0.48 0.55 0.63 0.70 0.72 0.74 0.70 0.64 0.61 0.65 0.65 0.64 0.74 0.90 0.87 0.90 0.97 1.18 1.23 1.26 1.19 1.04 1.10 1.09 1.15 1.22 1.30 1.49 1.34 1.20 1.26 1.38 1.36 1.24 1.23 1.30 1.38 1.53 1.80 1.86
0.18 0.24 0.36 0.45 0.53 0.62 0.74 0.79 0.76 0.75 0.73 0.72 0.71 0.72 0.69 0.68 0.76 0.84 0.88 0.95 1.06 1.10 1.20 1.17 1.08 1.12 0.98 0.97 1.01 1.15 1.44 1.36 1.21 1.25 1.29 1.30 1.24 1.16 1.21 1.23 1.32 1.44 1.58
0.16 0.20 0.26 0.32 0.35 0.45 0.56 0.68 0.73 0.72 0.71 0.71 0.75 0.82 0.82 0.75 0.80 0.92 0.82 0.82 0.89 0.92 0.95 1.06 1.02 0.98 0.89 0.82 0.91 1.04 1.16 1.29 1.31 1.25 1.17 1.16 1.15 1.14 1.19 1.16 1.17 1.25 1.28
0.17 0.20 0.21 0.23 0.24 0.28 0.42 0.49 0.54 0.60 0.64 0.72 0.78 0.86 0.94 0.90 0.82 0.79 0.75 0.75 0.79 0.76 0.70 0.70 0.71 0.75 0.73 0.73 0.79 0.85 0.98 1.18 1.31 1.24 1.11 1.11 1.12 1.13 1.15 1.08 1.08 1.15 1.20
0.16 0.17 0.18 0.20 0.22 0.24 0.30 0.41 0.47 0.53 0.57 0.62 0.71 0.84 0.90 0.89 0.89 0.98 0.97 0.92 0.89 0.87 0.81 0.71 0.65 0.67 0.74 0.78 0.79 0.79 0.87 1.01 1.12 1.12 1.06 1.01 1.04 1.09 1.09 1.02 1.00 1.05 1.10
0.22 0.19 0.18 0.19 0.23 0.25 0.27 0.32 0.36 0.39 0.41 0.44 0.49 0.55 0.62 0.68 0.70 0.70 0.76 0.79 0.79 0.77 0.87 0.89 0.85 0.87 0.86 0.82 0.83 0.78 0.75 0.81 0.94 1.02 1.03 0.98 0.95 0.99 1.05 1.03 1.02 1.05 1.07
0.30 0.27 0.24 0.22 0.25 0.28 0.29 0.29 0.35 0.36 0.35 0.36 0.38 0.45 0.53 0.58 0.56 0.55 0.58 0.64 0.68 0.71 0.84 0.86 0.79 0.74 0.72 0.69 0.69 0.70 0.70 0.71 0.76 0.87 0.94 0.96 0.93 0.96 1.05 1.09 1.08 1.11 1.13
0.20 0.22 0.24 0.27 0.25 0.27 0.33 0.40 0.46 0.52 0.47 0.38 0.36 0.41 0.45 0.49 0.50 0.51 0.54 0.56 0.53 0.54 0.60 0.67 0.64 0.60 0.57 0.57 0.57 0.55 0.58 0.61 0.65 0.72 0.80 0.86 0.92 0.96 1.01 1.07 1.10 1.08 1.09
0.17 0.20 0.27 0.31 0.28 0.28 0.37 0.48 0.53 0.55 0.52 0.43 0.34 0.31 0.34 0.36 0.41 0.46 0.47 0.49 0.48 0.42 0.43 0.51 0.54 0.53 0.50 0.46 0.44 0.43 0.45 0.47 0.50 0.58 0.66 0.73 0.79 0.84 0.90 0.96 1.01 1.06 1.06
0.22 0.26 0.33 0.37 0.33 0.35 0.39 0.40 0.39 0.42 0.42 0.38 0.34 0.33 0.34 0.33 0.34 0.37 0.40 0.40 0.42 0.40 0.40 0.44 0.46 0.45 0.44 0.43 0.41 0.39 0.41 0.44 0.46 0.51 0.59 0.68 0.72 0.74 0.74 0.79 0.88 0.94 0.93
0.29 0.30 0.31 0.38 0.39 0.36 0.36 0.34 0.36 0.38 0.36 0.34 0.34 0.34 0.36 0.34 0.34 0.35 0.35 0.36 0.37 0.39 0.39 0.38 0.40 0.46 0.44 0.42 0.41 0.42 0.43 0.43 0.43 0.48 0.53 0.56 0.61 0.65 0.67 0.69 0.71 0.78 0.84
0.30 0.31 0.30 0.37 0.39 0.33 0.31 0.32 0.36 0.38 0.36 0.34 0.33 0.34 0.36 0.33 0.34 0.34 0.35 0.37 0.38 0.40 0.41 0.39 0.40 0.44 0.48 0.47 0.45 0.46 0.48 0.48 0.46 0.48 0.52 0.54 0.56 0.58 0.61 0.61 0.63 0.67 0.71
0.31 0.30 0.30 0.33 0.34 0.31 0.29 0.31 0.35 0.38 0.36 0.34 0.34 0.35 0.34 0.32 0.32 0.34 0.39 0.45 0.49 0.48 0.43 0.40 0.42 0.46 0.50 0.51 0.50 0.50 0.50 0.49 0.49 0.50 0.53 0.57 0.59 0.62 0.64 0.65 0.65 0.69 0.74
0.35 0.36 0.37 0.37 0.36 0.37 0.39 0.38 0.36 0.37 0.39 0.39 0.37 0.38 0.37 0.33 0.32 0.34 0.40 0.47 0.49 0.48 0.46 0.43 0.43 0.46 0.51 0.55 0.56 0.54 0.52 0.50 0.48 0.48 0.51 0.55 0.58 0.59 0.62 0.65 0.68 0.70 0.75
0.36 0.37 0.38 0.41 0.40 0.40 0.43 0.42 0.39 0.39 0.42 0.46 0.47 0.43 0.40 0.37 0.35 0.35 0.37 0.43 0.45 0.43 0.43 0.44 0.48 0.51 0.53 0.52 0.52 0.55 0.65 0.65 0.57 0.53 0.52 0.56 0.60 0.62 0.65 0.69 0.73 0.76 0.80
0.36 0.37 0.40 0.46 0.46 0.45 0.45 0.46 0.45 0.44 0.46 0.49 0.52 0.54 0.51 0.44 0.39 0.39 0.41 0.44 0.44 0.42 0.44 0.45 0.47 0.49 0.51 0.51 0.48 0.52 0.58 0.56 0.56 0.57 0.55 0.56 0.62 0.67 0.72 0.75 0.78 0.83 0.89

GEFSGL_prec_meanprecacc_258.txt.gz
Total_Precipitation_Accumulation
1.07 1.12 1.10 1.16 1.27 1.53 1.73 1.67 1.49 1.47 1.49 1.45 1.40 1.48 1.62 1.73 1.84 1.97 2.04 2.06 2.09 2.22 2.16 2.12 2.19 2.30 2.55 2.51 2.56 2.55 2.45 2.37 2.33 2.11 1.74 1.74 1.98 2.08 1.99 1.79 1.63 1.62 1.45
0.91 0.95 1.01 1.03 1.12 1.24 1.35 1.36 1.29 1.20 1.17 1.23 1.28 1.28 1.36 1.53 1.65 1.69 1.71 1.74 1.81 1.93 1.99 1.94 1.96 2.04 2.16 2.37 2.48 2.47 2.48 2.42 2.41 2.36 2.02 1.83 1.79 1.92 2.01 1.97 1.72 1.58 1.49
0.85 0.94 1.01 0.99 0.99 1.00 1.01 0.95 0.99 0.99 1.04 1.09 1.21 1.25 1.32 1.40 1.56 1.57 1.56 1.52 1.56 1.62 1.76 1.83 1.88 1.91 1.94 2.07 2.05 2.13 2.27 2.42 2.51 2.43 2.27 2.06 1.89 1.87 1.96 1.92 1.85 1.88 1.63
0.94 1.02 1.08 1.08 1.06 1.04 1.02 0.97 0.98 0.98 1.01 1.12 1.30 1.36 1.37 1.39 1.39 1.44 1.51 1.47 1.37 1.33 1.39 1.43 1.56 1.69 1.73 1.91 1.88 1.89 2.05 2.29 2.56 2.58 2.45 2.21 2.06 2.01 1.98 1.94 1.99 1.97 1.87
0.83 0.95 1.01 1.07 1.11 1.04 0.94 0.90 0.94 0.91 0.89 1.03 1.19 1.34 1.38 1.37 1.34 1.41 1.48 1.51 1.44 1.28 1.23 1.24 1.29 1.42 1.69 1.80 1.76 1.97 2.12 2.17 2.32 2.45 2.45 2.38 2.22 2.05 1.92 1.83 1.90 1.96 1.98
0.73 0.84 1.03 1.10 1.02 0.94 0.84 0.84 0.85 0.82 0.81 0.89 1.03 1.20 1.30 1.28 1.68 1.67 1.48 1.47 1.43 1.29 1.19 1.17 1.14 1.14 1.35 1.65 1.80 1.93 2.06 2.15 2.20 2.23 2.27 2.21 2.15 2.09 2.14 2.09 1.97 1.91 1.88
0.66 0.82 1.01 1.01 0.92 0.87 0.88 0.90 0.85 0.82 0.82 0.87 0.92 0.93 1.02 1.31 1.38 1.16 1.19 1.23 1.34 1.25 1.12 1.05 0.96 0.95 1.11 1.20 1.36 1.48 1.68 1.99 2.20 2.24 2.12 1.98 2.06 2.04 2.08 2.12 2.02 1.95 1.85
0.56 0.68 0.85 0.86 0.84 0.89 0.89 0.84 0.78 0.72 0.70 0.73 0.77 0.81 0.87 1.00 1.02 0.97 1.07 1.01 1.15 1.15 1.05 1.00 0.99 0.98 1.03 1.08 1.22 1.36 1.38 1.47 1.71 1.77 1.79 1.81 1.87 2.02 2.08 2.11 2.18 2.11 2.08
0.43 0.54 0.66 0.68 0.73 0.75 0.72 0.74 0.71 0.66 0.65 0.65 0.69 0.77 0.85 0.84 0.87 0.86 0.93 1.04 1.19 1.15 1.03 1.02 0.99 0.97 1.15 1.22 1.21 1.30 1.39 1.37 1.49 1.67 1.88 1.87 1.78 1.79 1.90 1.95 2.08 2.11 2.10
0.34 0.44 0.55 0.59 0.60 0.62 0.67 0.70 0.70 0.66 0.64 0.64 0.66 0.67 0.73 0.77 0.91 0.78 0.88 1.07 1.19 1.21 1.18 1.07 1.17 1.15 1.25 1.23 1.18 1.33 1.39 1.24 1.17 1.27 1.43 1.48 1.40 1.42 1.62 1.64 1.85 2.00 1.92
0.26 0.35 0.42 0.49 0.55 0.64 0.72 0.73 0.75 0.72 0.68 0.66 0.71 0.71 0.67 0.76 0.91 0.89 0.92 0.98 1.18 1.24 1.27 1.20 1.06 1.12 1.10 1.16 1.23 1.31 1.50 1.35 1.21 1.27 1.39 1.37 1.25 1.24 1.31 1.39 1.53 1.81 1.87
0.20 0.26 0.37 0.46 0.54 0.64 0.76 0.81 0.78 0.76 0.75 0.75 0.75 0.76 0.73 0.72 0.79 0.85 0.89 0.96 1.07 1.11 1.20 1.17 1.10 1.14 0.99 0.99 1.03 1.16 1.45 1.37 1.22 1.25 1.30 1.31 1.25 1.17 1.21 1.24 1.32 1.44 1.58
0.17 0.22 0.29 0.34 0.37 0.47 0.58 0.70 0.75 0.74 0.72 0.73 0.78 0.85 0.86 0.79 0.84 0.95 0.83 0.83 0.91 0.93 0.96 1.07 1.03 1.00 0.92 0.85 0.93 1.05 1.17 1.30 1.31 1.25 1.18 1.16 1.16 1.15 1.20 1.18 1.18 1.26 1.29
0.18 0.22 0.23 0.26 0.27 0.31 0.45 0.52 0.56 0.62 0.66 0.73 0.80 0.89 0.98 0.94 0.85 0.82 0.77 0.77 0.81 0.77 0.72 0.72 0.73 0.77 0.77 0.76 0.81 0.87 0.99 1.19 1.32 1.25 1.12 1.13 1.14 1.15 1.17 1.11 1.11 1.18 1.21
0.18 0.19 0.20 0.22 0.24 0.27 0.34 0.44 0.50 0.55 0.59 0.63 0.72 0.86 0.93 0.94 0.95 1.03 1.01 0.94 0.91 0.89 0.84 0.74 0.68 0.70 0.78 0.84 0.84 0.83 0.90 1.03 1.14 1.14 1.08 1.05 1.08 1.12 1.12 1.06 1.03 1.07 1.12
0.22 0.20 0.19 0.20 0.24 0.26 0.30 0.36 0.39 0.42 0.44 0.46 0.51 0.57 0.65 0.71 0.77 0.77 0.81 0.84 0.81 0.79 0.89 0.91 0.88 0.90 0.90 0.88 0.89 0.84 0.81 0.85 0.98 1.06 1.06 1.01 0.98 1.03 1.08 1.07 1.05 1.07 1.09
0.31 0.28 0.25 0.23 0.26 0.30 0.30 0.31 0.36 0.37 0.37 0.38 0.41 0.48 0.56 0.61 0.60 0.60 0.63 0.69 0.72 0.73 0.85 0.87 0.81 0.76 0.75 0.72 0.74 0.75 0.75 0.75 0.79 0.90 0.96 0.98 0.95 0.98 1.07 1.11 1.11 1.14 1.15
0.21 0.23 0.26 0.29 0.27 0.29 0.35 0.42 0.47 0.52 0.47 0.39 0.38 0.43 0.46 0.50 0.51 0.53 0.57 0.59 0.55 0.55 0.60 0.68 0.65 0.61 0.59 0.60 0.60 0.58 0.61 0.65 0.68 0.73 0.82 0.87 0.93 0.97 1.02 1.08 1.12 1.11 1.12
0.19 0.22 0.30 0.33 0.31 0.31 0.39 0.49 0.54 0.55 0.53 0.44 0.35 0.32 0.35 0.37 0.42 0.46 0.49 0.50 0.49 0.43 0.44 0.51 0.54 0.54 0.52 0.48 0.46 0.46 0.48 0.49 0.53 0.60 0.68 0.74 0.80 0.86 0.91 0.97 1.02 1.08 1.08
0.24 0.29 0.36 0.41 0.37 0.38 0.42 0.42 0.40 0.43 0.43 0.39 0.36 0.35 0.35 0.34 0.34 0.38 0.40 0.41 0.43 0.40 0.41 0.45 0.47 0.47 0.46 0.45 0.43 0.41 0.43 0.46 0.48 0.53 0.60 0.69 0.74 0.76 0.76 0.81 0.90 0.96 0.95
0.32 0.32 0.34 0.41 0.42 0.40 0.39 0.37 0.38 0.40 0.37 0.36 0.36 0.36 0.37 0.35 0.34 0.35 0.36 0.36 0.37 0.40 0.40 0.40 0.42 0.47 0.46 0.43 0.43 0.44 0.44 0.45 0.45 0.50 0.54 0.58 0.62 0.66 0.69 0.71 0.74 0.80 0.86
0.32 0.34 0.33 0.40 0.43 0.37 0.34 0.35 0.39 0.41 0.39 0.36 0.35 0.36 0.37 0.34 0.34 0.35 0.36 0.39 0.40 0.42 0.43 0.40 0.42 0.46 0.50 0.48 0.46 0.47 0.49 0.49 0.48 0.50 0.54 0.55 0.57 0.59 0.63 0.64 0.66 0.70 0.74
0.33 0.33 0.33 0.36 0.37 0.35 0.33 0.36 0.40 0.42 0.40 0.37 0.36 0.36 0.35 0.34 0.33 0.35 0.40 0.47 0.51 0.49 0.45 0.42 0.44 0.49 0.52 0.53 0.51 0.52 0.51 0.50 0.50 0.51 0.55 0.58 0.60 0.63 0.66 0.67 0.68 0.73 0.77
0.38 0.39 0.40 0.41 0.39 0.40 0.43 0.42 0.40 0.41 0.43 0.42 0.40 0.39 0.38 0.34 0.34 0.36 0.41 0.48 0.51 0.50 0.48 0.45 0.45 0.48 0.53 0.56 0.57 0.55 0.52 0.51 0.49 0.49 0.53 0.57 0.59 0.61 0.64 0.67 0.71 0.73 0.79
0.39 0.41 0.43 0.45 0.44 0.44 0.47 0.45 0.42 0.42 0.45 0.48 0.49 0.44 0.42 0.39 0.37 0.37 0.39 0.45 0.47 0.45 0.45 0.46 0.50 0.53 0.55 0.53 0.53 0.56 0.66 0.66 0.58 0.54 0.53 0.57 0.61 0.63 0.66 0.71 0.75 0.78 0.83
0.39 0.41 0.45 0.50 0.50 0.49 0.49 0.50 0.48 0.46 0.49 0.51 0.55 0.56 0.53 0.47 0.43 0.42 0.43 0.47 0.47 0.46 0.46 0.48 0.49 0.51 0.53 0.53 0.50 0.53 0.59 0.57 0.56 0.58 0.56 0.57 0.63 0.68 0.73 0.77 0.80 0.85 0.92